Weather Roundup
Issued by NWS Springfield, MO

Home | Current Version | Previous Version | Text Only | Print | Product List | Glossary On
Versions: 1 2 3 4 5 6 7 8 9 10 11 12 13 14 15 16 17 18 19 20 21 22 23 24 25 26 27 28 29 30 31 32 33 34 35 36 37 38 39 40 41 42 43 44 45 46 47 48 49 50
566
NZUS99 KSGF 271907
HRRSGF

HOURLY WEATHER
NATIONAL WEATHER SERVICE SPRINGFIELD MO
200 PM CDT SAT AUG 27 2016

......SGF CWA......

CITY           SKY/WX    TMP DP  RH WIND       PRES   REMARKS
SPRINGFIELD    CLOUDY    86  68  54 SW8       30.06S
JOPLIN         SUNNY     86  70  58 SW6       30.04F HX  90
WEST PLAINS    CLOUDY    82  71  69 SE10      30.10S
ROLLA          CLOUDY    85  73  67 S9        30.05F HX  91
OSAGE BEACH    CLOUDY    85  73  67 CALM      30.05S HX  91
BRANSON        CLOUDY    86  72  62 CALM      30.08F HX  92

......SURROUNDING SGF CWA......

CITY           SKY/WX    TMP DP  RH WIND       PRES   REMARKS
CHANUTE        MOSUNNY   88  74  63 S10       30.02F HX  96
PARSONS        MOSUNNY   90  70  51 VRB5      30.02F HX  95
COFFEYVILLE    MOSUNNY   91  70  49 S8        30.01F HX  96
EMPORIA        MOSUNNY   83  71  67 VRB5      30.03S
GROVE OK       PTSUNNY   88  70  55 CALM      30.04F HX  92
ROGERS AR      CLOUDY    85  69  58 SE6       30.08S
SILOAM SPRINGS CLOUDY    84  63  48 S7        30.08S
HARRISON AR    CLOUDY    77  72  84 S9        30.10R
NEAR YELLVILLE PTSUNNY   88  70  55 NE3       30.04S HX  92

......KANSAS AND MISSOURI......

CITY           SKY/WX    TMP DP  RH WIND       PRES   REMARKS
KANSAS CTY INT PTSUNNY   84  69  60 VRB5      30.03S
DOWNTOWN KC    PTSUNNY   88  72  58 S7        30.01S HX  94
COLUMBIA       CLOUDY    86  72  62 S6        30.05S HX  92
SEDALIA        SUNNY     88  70  55 SW9       30.05S HX  93
ST JOSEPH      SUNNY     82  69  64 VRB5      30.03S
ST LOUIS       PTSUNNY   92  70  48 SW3       30.04F HX  97
SPIRIT OF STL  PTSUNNY   88  73  61 S3        30.03S HX  95
KIRKSVILLE     PTSUNNY   84  71  65 S12       30.04S
WICHITA        MOSUNNY   87  71  58 SE8       30.02S HX  93
TOPEKA         PTSUNNY   83  71  67 S5        30.02S
OLATHE         MOSUNNY   84  73  69 S8        30.03S HX  90

......TENNESSEE......

CITY           SKY/WX    TMP DP  RH WIND       PRES   REMARKS
MEMPHIS        MOSUNNY   92  72  51 CALM      30.05F HX  99
NASHVILLE      PTSUNNY   96  70  42 N6        30.06F HX 102

......ARKANSAS.......

CITY           SKY/WX    TMP DP  RH WIND       PRES   REMARKS
FAYETTEVILLE   PTSUNNY   85  71  63 W6        30.06F HX  90
FT SMITH       MOSUNNY   85  72  65 S3        30.01F HX  91
LITTLE ROCK    MOSUNNY   92  70  48 S5        30.03F HX  97

......OKLAHOMA.......

CITY           SKY/WX    TMP DP  RH WIND       PRES   REMARKS
TULSA          MOSUNNY   93  72  50 SE14      29.99F HX 101
PONCA CITY     SUNNY     87  71  58 S9        30.01F HX  93
MCALESTER      MOSUNNY   88  70  55 SW6       30.03F HX  93
OKLAHOMA CITY  LGT RAIN  84  70  62 W12       30.03S

......IOWA............

CITY           SKY/WX    TMP DP  RH WIND       PRES   REMARKS
DES MOINES     CLOUDY    76  68  76 W5        30.03R
QUAD CITIES    MOSUNNY   83  71  67 W8        30.01S

......ILLINOIS........

CITY           SKY/WX    TMP DP  RH WIND       PRES   REMARKS
QUINCY         MOSUNNY   86  73  65 W12       30.03R HX  93
CHICAGO        PTSUNNY   80  70  71 SW12      30.02F




USA.gov is the U.S. government's official web portal to all federal, state and local government web resources and services.